Regional Weather Roundup
Issued by NWS

Home | Current Version | Previous Version | Text Only | Print | Product List | Glossary On
Versions: 1 2 3 4 5 6 7 8 9 10 11 12 13 14 15 16 17 18 19 20 21 22 23 24 25 26 27 28 29 30 31 32 33 34 35 36 37 38 39 40 41 42 43 44 45 46 47 48 49 50
000
ASUS43 KLSX 240359
RWRMO

WEATHER SUMMARY FOR MISSOURI
NATIONAL WEATHER SERVICE SPRINGFIELD MO
1100 PM CDT THU OCT 23 2014

NOTE: "FAIR" INDICATES FEW OR NO CLOUDS BELOW 12,000 FEET WITH NO
       SIGNIFICANT WEATHER AND/OR OBSTRUCTIONS TO VISIBILITY.
       CURRENT SKY AND/OR WEATHER CONDITIONS ARE NOT AVAILABLE FOR
       CHILLICOTHE AND FARMINGTON.

MOZ001>031-035>038-043-044-053-054-240500-
...NORTHERN AND WESTERN MISSOURI...

CITY           SKY/WX    TMP DP  RH WIND       PRES   REMARKS
KANSAS CTY INT CLEAR     55  55 100 SW8       30.09R FOG
KANSAS C DTWN  CLEAR     60  57  89 SW3       30.09S FOG
LEE`S SUMMIT   CLEAR     57  56  96 S5        30.10S FOG
ST JOSEPH      FOG       55  55 100 S6        30.07S VSB 1/4
KIRKSVILLE     FOG       55  55 100 W3        30.09R VSB<1/4

$$
MOZ066>068-077>081-088>096-101>105-240500-
...SOUTHWEST MISSOURI...

CITY           SKY/WX    TMP DP  RH WIND       PRES   REMARKS
SPRINGFIELD    FOG       50  49  96 CALM      30.13S VSB 1/4
JOPLIN         MOCLDY    53  53 100 SE3       30.14S FOG

$$
MOZ032>034-039>042-045>050-055>058-069>072-240500-
...CENTRAL MISSOURI...

CITY           SKY/WX    TMP DP  RH WIND       PRES   REMARKS
COLUMBIA       CLEAR     55  52  89 SW3       30.09F
JEFFERSON CITY MOCLDY    59  52  77 CALM      30.09S
ROLLA          MOCLDY    52  46  80 SW9       30.10S
SEDALIA        CLOUDY    63  58  83 SW6       30.12R
OSAGE BEACH    CLEAR     54  48  82 CALM      30.11S

$$
MOZ051-052-059>065-240500-
...EAST CENTRAL MISSOURI...

CITY           SKY/WX    TMP DP  RH WIND       PRES   REMARKS
ST LOUIS INTL  MOCLDY    59  46  62 S3        30.10S
SPIRIT OF STL  MOCLDY    56  49  77 CALM      30.09S
ST CHARLES     CLEAR     54  47  77 S5        30.09S

$$
MOZ072>076-082>087-097>100-106>115-240500-
...SOUTH CENTRAL AND SOUTHEAST MISSOURI...

CITY           SKY/WX    TMP DP  RH WIND       PRES   REMARKS
CAPE GIRARDEAU MOCLDY    47  45  93 CALM      30.12F
FARMINGTON     PTCLDY    50  45  81 CALM      30.13R
POPLAR BLUFF   CLEAR     48  44  86 CALM      30.12F
WEST PLAINS    MOCLDY    48  45  89 CALM      30.14S

$$



USA.gov is the U.S. government's official web portal to all federal, state and local government web resources and services.